Location: Courçay
(47.2523°N, 0.8761°E)
Time: 00:10:31
(UTC+00:00)

ATLAS 5 CENTAUR R/B - Pass Details

Date: 18 November 2025
Orbit: 373 x 1090 km, 63.3° (Epoch: 04 December)

Event Time Altitude Azimuth Distance (km) Brightness Sun altitude
Rises 17:46:36 0° 308° (NW) 2,834 5.5 -14.9°
Reaches altitude 10° 17:49:00 10° 295° (WNW) 2,046 5.0 -15.3°
Maximum altitude 17:52:47 25° 241° (WSW) 1,461 4.3 -15.9°
Drops below altitude 10° 17:57:12 10° 188° (S) 2,426 4.8 -16.7°
Sets 18:00:18 0° 176° (S) 3,491 5.5 -17.2°
